Year,Month,Day,Hour,Minute,Value (Times are PST for temperature in C)
2018,06,16,00,00,15.20
2018,06,16,00,01,15.20
2018,06,16,00,02,15.20
2018,06,16,00,03,15.20
2018,06,16,00,04,15.20
2018,06,16,00,05,15.20
2018,06,16,00,06,15.20
2018,06,16,00,07,15.20
2018,06,16,00,08,15.20
2018,06,16,00,09,15.20
2018,06,16,00,10,15.10
2018,06,16,00,11,15.10
2018,06,16,00,12,15.10
2018,06,16,00,13,15.10
2018,06,16,00,14,15.10
2018,06,16,00,15,15.10
2018,06,16,00,16,15.10
2018,06,16,00,17,15.10
2018,06,16,00,18,15.10
2018,06,16,00,19,15.10
2018,06,16,00,20,15.10
2018,06,16,00,21,15.10
2018,06,16,00,22,15.10
2018,06,16,00,23,15.00
2018,06,16,00,24,15.00
2018,06,16,00,25,15.00
2018,06,16,00,26,15.00
2018,06,16,00,27,15.00
2018,06,16,00,28,15.00
2018,06,16,00,29,15.00
2018,06,16,00,30,15.00
2018,06,16,00,31,15.00
2018,06,16,00,32,15.00
2018,06,16,00,33,15.00
2018,06,16,00,34,15.00
2018,06,16,00,35,15.00
2018,06,16,00,36,15.00
2018,06,16,00,37,15.00
2018,06,16,00,38,15.00
2018,06,16,00,39,15.00
2018,06,16,00,40,15.00
2018,06,16,00,41,15.00
2018,06,16,00,42,15.00
2018,06,16,00,43,15.00
2018,06,16,00,44,15.00
2018,06,16,00,45,14.90
2018,06,16,00,46,14.90
2018,06,16,00,47,14.90
2018,06,16,00,48,14.90
2018,06,16,00,49,14.90
2018,06,16,00,50,14.90
2018,06,16,00,51,14.90
2018,06,16,00,52,14.90
2018,06,16,00,53,15.00
2018,06,16,00,54,15.00
2018,06,16,00,55,15.00
2018,06,16,00,56,15.00
2018,06,16,00,57,15.00
2018,06,16,00,58,15.00
2018,06,16,00,59,15.00
2018,06,16,01,00,15.00
2018,06,16,01,01,15.00
2018,06,16,01,02,15.00
2018,06,16,01,03,14.90
2018,06,16,01,04,14.90
2018,06,16,01,05,14.90
2018,06,16,01,06,14.90
2018,06,16,01,07,14.90
2018,06,16,01,08,14.90
2018,06,16,01,09,14.90
2018,06,16,01,10,14.90
2018,06,16,01,11,14.90
2018,06,16,01,12,14.90
2018,06,16,01,13,14.90
2018,06,16,01,14,14.90
2018,06,16,01,15,14.90
2018,06,16,01,16,14.90
2018,06,16,01,17,14.90
2018,06,16,01,18,14.90
2018,06,16,01,19,14.90
2018,06,16,01,20,14.90
2018,06,16,01,21,14.90
2018,06,16,01,22,14.90
2018,06,16,01,23,14.90
2018,06,16,01,24,14.90
2018,06,16,01,25,14.90
2018,06,16,01,26,14.90
2018,06,16,01,27,14.90
2018,06,16,01,28,14.90
2018,06,16,01,29,14.80
2018,06,16,01,30,14.80
2018,06,16,01,31,14.80
2018,06,16,01,32,14.80
2018,06,16,01,33,14.80
2018,06,16,01,34,14.80
2018,06,16,01,35,14.80
2018,06,16,01,36,14.80
2018,06,16,01,37,14.80
2018,06,16,01,38,14.80
2018,06,16,01,39,14.80
2018,06,16,01,40,14.80
2018,06,16,01,41,14.70
2018,06,16,01,42,14.70
2018,06,16,01,43,14.70
2018,06,16,01,44,14.70
2018,06,16,01,45,14.70
2018,06,16,01,46,14.70
2018,06,16,01,47,14.70
2018,06,16,01,48,14.70
2018,06,16,01,49,14.70
2018,06,16,01,50,14.70
2018,06,16,01,51,14.60
2018,06,16,01,52,14.60
2018,06,16,01,53,14.60
2018,06,16,01,54,14.70
2018,06,16,01,55,14.70
2018,06,16,01,56,14.70
2018,06,16,01,57,14.70
2018,06,16,01,58,14.60
2018,06,16,01,59,14.60
2018,06,16,02,00,14.60
2018,06,16,02,01,14.60
2018,06,16,02,02,14.60
2018,06,16,02,03,14.60
2018,06,16,02,04,14.50
2018,06,16,02,05,14.50
2018,06,16,02,06,14.50
2018,06,16,02,07,14.50
2018,06,16,02,08,14.50
2018,06,16,02,09,14.50
2018,06,16,02,10,14.50
2018,06,16,02,11,14.50
2018,06,16,02,12,14.60
2018,06,16,02,13,14.60
2018,06,16,02,14,14.60
2018,06,16,02,15,14.60
2018,06,16,02,16,14.60
2018,06,16,02,17,14.60
2018,06,16,02,18,14.60
2018,06,16,02,19,14.60
2018,06,16,02,20,14.60
2018,06,16,02,21,14.60
2018,06,16,02,22,14.60
2018,06,16,02,23,14.60
2018,06,16,02,24,14.60
2018,06,16,02,25,14.50
2018,06,16,02,26,14.50
2018,06,16,02,27,14.50
2018,06,16,02,28,14.50
2018,06,16,02,29,14.50
2018,06,16,02,30,14.50
2018,06,16,02,31,14.50
2018,06,16,02,32,14.50
2018,06,16,02,33,14.50
2018,06,16,02,34,14.60
2018,06,16,02,35,14.60
2018,06,16,02,36,14.60
2018,06,16,02,37,14.60
2018,06,16,02,38,14.50
2018,06,16,02,39,14.50
2018,06,16,02,40,14.50
2018,06,16,02,41,14.50
2018,06,16,02,42,14.50
2018,06,16,02,43,14.50
2018,06,16,02,44,14.50
2018,06,16,02,45,14.50
2018,06,16,02,46,14.50
2018,06,16,02,47,14.50
2018,06,16,02,48,14.50
2018,06,16,02,49,14.50
2018,06,16,02,50,14.50
2018,06,16,02,51,14.50
2018,06,16,02,52,14.40
2018,06,16,02,53,14.40
2018,06,16,02,54,14.40
2018,06,16,02,55,14.40
2018,06,16,02,56,14.40
2018,06,16,02,57,14.40
2018,06,16,02,58,14.40
2018,06,16,02,59,14.40
2018,06,16,03,00,14.40
2018,06,16,03,01,14.40
2018,06,16,03,02,14.40
2018,06,16,03,03,14.40
2018,06,16,03,04,14.40
2018,06,16,03,05,14.40
2018,06,16,03,06,14.40
2018,06,16,03,07,14.40
2018,06,16,03,08,14.40
2018,06,16,03,09,14.40
2018,06,16,03,10,14.40
2018,06,16,03,11,14.40
2018,06,16,03,12,14.40
2018,06,16,03,13,14.40
2018,06,16,03,14,14.30
2018,06,16,03,15,14.30
2018,06,16,03,16,14.20
2018,06,16,03,17,14.20
2018,06,16,03,18,14.20
2018,06,16,03,19,14.10
2018,06,16,03,20,14.00
2018,06,16,03,21,14.00
2018,06,16,03,22,13.90
2018,06,16,03,23,13.80
2018,06,16,03,24,13.80
2018,06,16,03,25,13.70
2018,06,16,03,26,13.70
2018,06,16,03,27,13.70
2018,06,16,03,28,13.70
2018,06,16,03,29,13.70
2018,06,16,03,30,13.60
2018,06,16,03,31,13.60
2018,06,16,03,32,13.50
2018,06,16,03,33,13.50
2018,06,16,03,34,13.50
2018,06,16,03,35,13.40
2018,06,16,03,36,13.40
2018,06,16,03,37,13.40
2018,06,16,03,38,13.30
2018,06,16,03,39,13.30
2018,06,16,03,40,13.30
2018,06,16,03,41,13.30
2018,06,16,03,42,13.30
2018,06,16,03,43,13.30
2018,06,16,03,44,13.30
2018,06,16,03,45,13.30
2018,06,16,03,46,13.30
2018,06,16,03,47,13.30
2018,06,16,03,48,13.30
2018,06,16,03,49,13.30
2018,06,16,03,50,13.30
2018,06,16,03,51,13.30
2018,06,16,03,52,13.30
2018,06,16,03,53,13.30
2018,06,16,03,54,13.30
2018,06,16,03,55,13.30
2018,06,16,03,56,13.30
2018,06,16,03,57,13.30
2018,06,16,03,58,13.30
2018,06,16,03,59,13.30
2018,06,16,04,00,13.30
2018,06,16,04,01,13.30
2018,06,16,04,02,13.30
2018,06,16,04,03,13.20
2018,06,16,04,04,13.20
2018,06,16,04,05,13.20
2018,06,16,04,06,13.20
2018,06,16,04,07,13.20
2018,06,16,04,08,13.20
2018,06,16,04,09,13.20
2018,06,16,04,10,13.20
2018,06,16,04,11,13.20
2018,06,16,04,12,13.20
2018,06,16,04,13,13.20
2018,06,16,04,14,13.20
2018,06,16,04,15,13.20
2018,06,16,04,16,13.20
2018,06,16,04,17,13.20
2018,06,16,04,18,13.20
2018,06,16,04,19,13.20
2018,06,16,04,20,13.20
2018,06,16,04,21,13.10
2018,06,16,04,22,13.10
2018,06,16,04,23,13.10
2018,06,16,04,24,13.10
2018,06,16,04,25,13.00
2018,06,16,04,26,13.00
2018,06,16,04,27,12.90
2018,06,16,04,28,12.90
2018,06,16,04,29,12.80
2018,06,16,04,30,12.80
2018,06,16,04,31,12.80
2018,06,16,04,32,12.80
2018,06,16,04,33,12.70
2018,06,16,04,34,12.70
2018,06,16,04,35,12.70
2018,06,16,04,36,12.70
2018,06,16,04,37,12.70
2018,06,16,04,38,12.70
2018,06,16,04,39,12.70
2018,06,16,04,40,12.70
2018,06,16,04,41,12.60
2018,06,16,04,42,12.60
2018,06,16,04,43,12.60
2018,06,16,04,44,12.50
2018,06,16,04,45,12.50
2018,06,16,04,46,12.50
2018,06,16,04,47,12.50
2018,06,16,04,48,12.50
2018,06,16,04,49,12.50
2018,06,16,04,50,12.50
2018,06,16,04,51,12.50
2018,06,16,04,52,12.40
2018,06,16,04,53,12.40
2018,06,16,04,54,12.50
2018,06,16,04,55,12.50
2018,06,16,04,56,12.60
2018,06,16,04,57,12.60
2018,06,16,04,58,12.70
2018,06,16,04,59,12.70
2018,06,16,05,00,12.80
2018,06,16,05,01,12.80
2018,06,16,05,02,12.80
2018,06,16,05,03,12.80
2018,06,16,05,04,12.80
2018,06,16,05,05,12.80
2018,06,16,05,06,12.80
2018,06,16,05,07,12.80
2018,06,16,05,08,12.80
2018,06,16,05,09,12.80
2018,06,16,05,10,12.80
2018,06,16,05,11,12.70
2018,06,16,05,12,12.70
2018,06,16,05,13,12.70
2018,06,16,05,14,12.60
2018,06,16,05,15,12.60
2018,06,16,05,16,12.50
2018,06,16,05,17,12.50
2018,06,16,05,18,12.40
2018,06,16,05,19,12.40
2018,06,16,05,20,12.30
2018,06,16,05,21,12.30
2018,06,16,05,22,12.20
2018,06,16,05,23,12.20
2018,06,16,05,24,12.10
2018,06,16,05,25,12.00
2018,06,16,05,26,12.00
2018,06,16,05,27,11.90
2018,06,16,05,28,11.90
2018,06,16,05,29,11.80
2018,06,16,05,30,11.80
2018,06,16,05,31,11.90
2018,06,16,05,32,11.90
2018,06,16,05,33,11.90
2018,06,16,05,34,11.80
2018,06,16,05,35,11.80
2018,06,16,05,36,11.70
2018,06,16,05,37,11.70
2018,06,16,05,38,11.70
2018,06,16,05,39,11.70
2018,06,16,05,40,11.70
2018,06,16,05,41,11.70
2018,06,16,05,42,11.70
2018,06,16,05,43,11.60
2018,06,16,05,44,11.60
2018,06,16,05,45,11.60
2018,06,16,05,46,11.60
2018,06,16,05,47,11.60
2018,06,16,05,48,11.60
2018,06,16,05,49,11.60
2018,06,16,05,50,11.60
2018,06,16,05,51,11.60
2018,06,16,05,52,11.60
2018,06,16,05,53,11.60
2018,06,16,05,54,11.60
2018,06,16,05,55,11.60
2018,06,16,05,56,11.60
2018,06,16,05,57,11.70
2018,06,16,05,58,11.80
2018,06,16,05,59,11.80
2018,06,16,06,00,11.90
2018,06,16,06,01,12.00
2018,06,16,06,02,12.20
2018,06,16,06,03,12.30
2018,06,16,06,04,12.30
2018,06,16,06,05,12.40
2018,06,16,06,06,12.50
2018,06,16,06,07,12.50
2018,06,16,06,08,12.50
2018,06,16,06,09,12.60
2018,06,16,06,10,12.70
2018,06,16,06,11,12.70
2018,06,16,06,12,12.80
2018,06,16,06,13,12.80
2018,06,16,06,14,12.90
2018,06,16,06,15,12.90
2018,06,16,06,16,13.00
2018,06,16,06,17,13.10
2018,06,16,06,18,13.10
2018,06,16,06,19,13.20
2018,06,16,06,20,13.30
2018,06,16,06,21,13.30
2018,06,16,06,22,13.30
2018,06,16,06,23,13.30
2018,06,16,06,24,13.30
2018,06,16,06,25,13.30
2018,06,16,06,26,13.30
2018,06,16,06,27,13.30
2018,06,16,06,28,13.40
2018,06,16,06,29,13.40
2018,06,16,06,30,13.50
2018,06,16,06,31,13.50
2018,06,16,06,32,13.50
2018,06,16,06,33,13.60
2018,06,16,06,34,13.60
2018,06,16,06,35,13.60
2018,06,16,06,36,13.70
2018,06,16,06,37,13.70
2018,06,16,06,38,13.80
2018,06,16,06,39,13.90
2018,06,16,06,40,14.00
2018,06,16,06,41,14.00
2018,06,16,06,42,14.10
2018,06,16,06,43,14.20
2018,06,16,06,44,14.20
2018,06,16,06,45,14.20
2018,06,16,06,46,14.20
2018,06,16,06,47,14.20
2018,06,16,06,48,14.30
2018,06,16,06,49,14.30
2018,06,16,06,50,14.40
2018,06,16,06,51,14.40
2018,06,16,06,52,14.40
2018,06,16,06,53,14.50
2018,06,16,06,54,14.50
2018,06,16,06,55,14.50
2018,06,16,06,56,14.50
2018,06,16,06,57,14.60
2018,06,16,06,58,14.60
2018,06,16,06,59,14.60
2018,06,16,07,00,14.60
2018,06,16,07,01,14.60
2018,06,16,07,02,14.60
2018,06,16,07,03,14.70
2018,06,16,07,04,14.70
2018,06,16,07,05,14.80
2018,06,16,07,06,14.80
2018,06,16,07,07,15.00
2018,06,16,07,08,15.10
2018,06,16,07,09,15.20
2018,06,16,07,10,15.20
2018,06,16,07,11,15.30
2018,06,16,07,12,15.40
2018,06,16,07,13,15.50
2018,06,16,07,14,15.50
2018,06,16,07,15,15.50
2018,06,16,07,16,15.60
2018,06,16,07,17,15.60
2018,06,16,07,18,15.70
2018,06,16,07,19,15.90
2018,06,16,07,20,16.00
2018,06,16,07,21,16.20
2018,06,16,07,22,16.20
2018,06,16,07,23,16.30
2018,06,16,07,24,16.40
2018,06,16,07,25,16.50
2018,06,16,07,26,16.60
2018,06,16,07,27,16.70
2018,06,16,07,28,16.80
2018,06,16,07,29,16.90
2018,06,16,07,30,17.00
2018,06,16,07,31,17.00
2018,06,16,07,32,17.20
2018,06,16,07,33,17.30
2018,06,16,07,34,17.40
2018,06,16,07,35,17.50
2018,06,16,07,36,17.50
2018,06,16,07,37,17.60
2018,06,16,07,38,17.60
2018,06,16,07,39,17.70
2018,06,16,07,40,17.60
2018,06,16,07,41,17.70
2018,06,16,07,42,17.70
2018,06,16,07,43,17.80
2018,06,16,07,44,17.80
2018,06,16,07,45,17.80
2018,06,16,07,46,17.80
2018,06,16,07,47,17.80
2018,06,16,07,48,17.80
2018,06,16,07,49,17.70
2018,06,16,07,50,17.70
2018,06,16,07,51,17.60
2018,06,16,07,52,17.60
2018,06,16,07,53,17.70
2018,06,16,07,54,17.70
2018,06,16,07,55,17.80
2018,06,16,07,56,17.90
2018,06,16,07,57,18.00
2018,06,16,07,58,18.10
2018,06,16,07,59,18.10
2018,06,16,08,00,17.90
2018,06,16,08,01,17.90
2018,06,16,08,02,17.90
2018,06,16,08,03,17.80
2018,06,16,08,04,17.80
2018,06,16,08,05,17.70
2018,06,16,08,06,17.70
2018,06,16,08,07,17.60
2018,06,16,08,08,17.50
2018,06,16,08,09,17.50
2018,06,16,08,10,17.50
2018,06,16,08,11,17.50
2018,06,16,08,12,17.50
2018,06,16,08,13,17.50
2018,06,16,08,14,17.50
2018,06,16,08,15,17.40
2018,06,16,08,16,17.40
2018,06,16,08,17,17.30
2018,06,16,08,18,17.30
2018,06,16,08,19,17.40
2018,06,16,08,20,17.40
2018,06,16,08,21,17.50
2018,06,16,08,22,17.60
2018,06,16,08,23,17.60
2018,06,16,08,24,17.60
2018,06,16,08,25,17.60
2018,06,16,08,26,17.70
2018,06,16,08,27,17.90
2018,06,16,08,28,18.00
2018,06,16,08,29,18.20
2018,06,16,08,30,18.30
2018,06,16,08,31,18.50
2018,06,16,08,32,18.50
2018,06,16,08,33,18.50
2018,06,16,08,34,18.50
2018,06,16,08,35,18.50
2018,06,16,08,36,18.60
2018,06,16,08,37,18.60
2018,06,16,08,38,18.70
2018,06,16,08,39,18.70
2018,06,16,08,40,18.80
2018,06,16,08,41,18.80
2018,06,16,08,42,18.80
2018,06,16,08,43,18.80
2018,06,16,08,44,18.80
2018,06,16,08,45,18.80
2018,06,16,08,46,18.70
2018,06,16,08,47,18.70
2018,06,16,08,48,18.80
2018,06,16,08,49,18.90
2018,06,16,08,50,18.90
2018,06,16,08,51,18.80
2018,06,16,08,52,18.80
2018,06,16,08,53,18.80
2018,06,16,08,54,18.90
2018,06,16,08,55,18.90
2018,06,16,08,56,18.90
2018,06,16,08,57,18.90
2018,06,16,08,58,18.90
2018,06,16,08,59,18.90
2018,06,16,09,00,19.00
2018,06,16,09,01,19.10
2018,06,16,09,02,19.10
2018,06,16,09,03,19.10
2018,06,16,09,04,19.10
2018,06,16,09,05,19.10
2018,06,16,09,06,19.10
2018,06,16,09,07,19.10
2018,06,16,09,08,19.10
2018,06,16,09,09,19.10
2018,06,16,09,10,19.20
2018,06,16,09,11,19.30
2018,06,16,09,12,19.40
2018,06,16,09,13,19.40
2018,06,16,09,14,19.40
2018,06,16,09,15,19.40
2018,06,16,09,16,19.50
2018,06,16,09,17,19.50
2018,06,16,09,18,19.60
2018,06,16,09,19,19.70
2018,06,16,09,20,19.80
2018,06,16,09,21,19.80
2018,06,16,09,22,19.80
2018,06,16,09,23,19.80
2018,06,16,09,24,19.80
2018,06,16,09,25,19.80
2018,06,16,09,26,19.80
2018,06,16,09,27,19.70
2018,06,16,09,28,19.60
2018,06,16,09,29,19.60
2018,06,16,09,30,19.60
2018,06,16,09,31,19.60
2018,06,16,09,32,19.70
2018,06,16,09,33,19.80
2018,06,16,09,34,19.90
2018,06,16,09,35,19.90
2018,06,16,09,36,19.90
2018,06,16,09,37,20.00
2018,06,16,09,38,20.10
2018,06,16,09,39,20.00
2018,06,16,09,40,19.90
2018,06,16,09,41,19.80
2018,06,16,09,42,19.80
2018,06,16,09,43,19.90
2018,06,16,09,44,20.00
2018,06,16,09,45,20.20
2018,06,16,09,46,20.20
2018,06,16,09,47,20.20
2018,06,16,09,48,20.20
2018,06,16,09,49,20.30
2018,06,16,09,50,20.30
2018,06,16,09,51,20.40
2018,06,16,09,52,20.40
2018,06,16,09,53,20.50
2018,06,16,09,54,20.60
2018,06,16,09,55,20.70
2018,06,16,09,56,20.80
2018,06,16,09,57,21.00
2018,06,16,09,58,21.20
2018,06,16,09,59,21.30
2018,06,16,10,00,21.40
2018,06,16,10,01,21.40
2018,06,16,10,02,21.40
2018,06,16,10,03,21.40
2018,06,16,10,04,21.50
2018,06,16,10,05,21.60
2018,06,16,10,06,21.60
2018,06,16,10,07,21.60
2018,06,16,10,08,21.70
2018,06,16,10,09,21.80
2018,06,16,10,10,21.70
2018,06,16,10,11,21.70
2018,06,16,10,12,21.60
2018,06,16,10,13,21.60
2018,06,16,10,14,21.60
2018,06,16,10,15,21.80
2018,06,16,10,16,21.90
2018,06,16,10,17,22.00
2018,06,16,10,18,22.00
2018,06,16,10,19,22.10
2018,06,16,10,20,22.10
2018,06,16,10,21,22.10
2018,06,16,10,22,22.20
2018,06,16,10,23,22.20
2018,06,16,10,24,22.20
2018,06,16,10,25,22.20
2018,06,16,10,26,22.30
2018,06,16,10,27,22.40
2018,06,16,10,28,22.50
2018,06,16,10,29,22.50
2018,06,16,10,30,22.60
2018,06,16,10,31,22.50
2018,06,16,10,32,22.50
2018,06,16,10,33,22.50
2018,06,16,10,34,22.50
2018,06,16,10,35,22.50
2018,06,16,10,36,22.50
2018,06,16,10,37,22.50
2018,06,16,10,38,22.40
2018,06,16,10,39,22.40
2018,06,16,10,40,22.50
2018,06,16,10,41,22.50
2018,06,16,10,42,22.40
2018,06,16,10,43,22.30
2018,06,16,10,44,22.20
2018,06,16,10,45,22.20
2018,06,16,10,46,22.30
2018,06,16,10,47,22.30
2018,06,16,10,48,22.20
2018,06,16,10,49,21.90
2018,06,16,10,50,21.60
2018,06,16,10,51,21.50
2018,06,16,10,52,21.30
2018,06,16,10,53,21.20
2018,06,16,10,54,21.20
2018,06,16,10,55,21.30
2018,06,16,10,56,21.40
2018,06,16,10,57,21.50
2018,06,16,10,58,21.60
2018,06,16,10,59,21.80
2018,06,16,11,00,21.90
2018,06,16,11,01,22.10
2018,06,16,11,02,22.20
2018,06,16,11,03,22.10
2018,06,16,11,04,22.10
2018,06,16,11,05,22.10
2018,06,16,11,06,22.10
2018,06,16,11,07,22.20
2018,06,16,11,08,22.20
2018,06,16,11,09,22.40
2018,06,16,11,10,22.50
2018,06,16,11,11,22.60
2018,06,16,11,12,22.60
2018,06,16,11,13,22.70
2018,06,16,11,14,22.80
2018,06,16,11,15,22.80
2018,06,16,11,16,22.90
2018,06,16,11,17,22.90
2018,06,16,11,18,23.00
2018,06,16,11,19,23.10
2018,06,16,11,20,23.20
2018,06,16,11,21,23.30
2018,06,16,11,22,23.40
2018,06,16,11,23,23.60
2018,06,16,11,24,23.50
2018,06,16,11,25,23.40
2018,06,16,11,26,23.30
2018,06,16,11,27,23.30
2018,06,16,11,28,23.30
2018,06,16,11,29,23.30
2018,06,16,11,30,23.30
2018,06,16,11,31,23.20
2018,06,16,11,32,23.10
2018,06,16,11,33,23.10
2018,06,16,11,34,23.10
2018,06,16,11,35,23.10
2018,06,16,11,36,23.30
2018,06,16,11,37,23.20
2018,06,16,11,38,23.20
2018,06,16,11,39,23.20
2018,06,16,11,40,23.20
2018,06,16,11,41,23.30
2018,06,16,11,42,23.40
2018,06,16,11,43,23.40
2018,06,16,11,44,23.30
2018,06,16,11,45,23.30
2018,06,16,11,46,23.40
2018,06,16,11,47,23.50
2018,06,16,11,48,23.60
2018,06,16,11,49,23.70
2018,06,16,11,50,23.80
2018,06,16,11,51,24.00
2018,06,16,11,52,24.10
2018,06,16,11,53,24.10
2018,06,16,11,54,24.10
2018,06,16,11,55,24.10
2018,06,16,11,56,24.30
2018,06,16,11,57,24.40
2018,06,16,11,58,24.40
2018,06,16,11,59,24.20
2018,06,16,12,00,24.10
2018,06,16,12,01,24.10
2018,06,16,12,02,24.20
2018,06,16,12,03,24.30
2018,06,16,12,04,24.30
2018,06,16,12,05,24.30
2018,06,16,12,06,24.20
2018,06,16,12,07,24.10
2018,06,16,12,08,24.10
2018,06,16,12,09,24.20
2018,06,16,12,10,24.30
2018,06,16,12,11,24.30
2018,06,16,12,12,24.30
2018,06,16,12,13,24.30
2018,06,16,12,14,24.30
2018,06,16,12,15,24.20
2018,06,16,12,16,24.10
2018,06,16,12,17,24.10
2018,06,16,12,18,24.10
2018,06,16,12,19,24.10
2018,06,16,12,20,24.10
2018,06,16,12,21,24.10
2018,06,16,12,22,24.00
2018,06,16,12,23,24.00
2018,06,16,12,24,24.10
2018,06,16,12,25,24.10
2018,06,16,12,26,24.20
2018,06,16,12,27,24.30
2018,06,16,12,28,24.40
2018,06,16,12,29,24.30
2018,06,16,12,30,24.00
2018,06,16,12,31,23.60
2018,06,16,12,32,23.30
2018,06,16,12,33,23.00
2018,06,16,12,34,22.80
2018,06,16,12,35,22.70
2018,06,16,12,36,22.60
2018,06,16,12,37,22.50
2018,06,16,12,38,22.30
2018,06,16,12,39,22.20
2018,06,16,12,40,22.10
2018,06,16,12,41,22.10
2018,06,16,12,42,22.10
2018,06,16,12,43,22.30
2018,06,16,12,44,22.30
2018,06,16,12,45,22.60
2018,06,16,12,46,22.70
2018,06,16,12,47,22.60
2018,06,16,12,48,22.50
2018,06,16,12,49,22.40
2018,06,16,12,50,22.40
2018,06,16,12,51,22.40
2018,06,16,12,52,22.40
2018,06,16,12,53,22.30
2018,06,16,12,54,22.10
2018,06,16,12,55,22.10
2018,06,16,12,56,22.00
2018,06,16,12,57,22.00
2018,06,16,12,58,22.10
2018,06,16,12,59,22.20
2018,06,16,13,00,22.10
2018,06,16,13,01,22.00
2018,06,16,13,02,22.10
2018,06,16,13,03,22.10
2018,06,16,13,04,22.10
2018,06,16,13,05,22.00
2018,06,16,13,06,22.00
2018,06,16,13,07,21.90
2018,06,16,13,08,21.70
2018,06,16,13,09,21.60
2018,06,16,13,10,21.50
2018,06,16,13,11,21.40
2018,06,16,13,12,21.50
2018,06,16,13,13,21.60
2018,06,16,13,14,21.60
2018,06,16,13,15,21.60
2018,06,16,13,16,21.60
2018,06,16,13,17,21.50
2018,06,16,13,18,21.30
2018,06,16,13,19,21.20
2018,06,16,13,20,21.10
2018,06,16,13,21,21.10
2018,06,16,13,22,21.20
2018,06,16,13,23,21.30
2018,06,16,13,24,21.30
2018,06,16,13,25,21.50
2018,06,16,13,26,21.60
2018,06,16,13,27,21.80
2018,06,16,13,28,21.80
2018,06,16,13,29,21.80
2018,06,16,13,30,21.90
2018,06,16,13,31,22.10
2018,06,16,13,32,22.10
2018,06,16,13,33,22.20
2018,06,16,13,34,22.30
2018,06,16,13,35,22.40
2018,06,16,13,36,22.40
2018,06,16,13,37,22.40
2018,06,16,13,38,22.40
2018,06,16,13,39,22.30
2018,06,16,13,40,22.30
2018,06,16,13,41,22.20
2018,06,16,13,42,22.20
2018,06,16,13,43,22.30
2018,06,16,13,44,22.40
2018,06,16,13,45,22.30
2018,06,16,13,46,22.30
2018,06,16,13,47,22.20
2018,06,16,13,48,22.20
2018,06,16,13,49,22.30
2018,06,16,13,50,22.30
2018,06,16,13,51,22.40
2018,06,16,13,52,22.50
2018,06,16,13,53,22.50
2018,06,16,13,54,22.60
2018,06,16,13,55,22.60
2018,06,16,13,56,22.70
2018,06,16,13,57,22.80
2018,06,16,13,58,22.80
2018,06,16,13,59,22.80
2018,06,16,14,00,22.80
2018,06,16,14,01,22.90
2018,06,16,14,02,23.00
2018,06,16,14,03,22.90
2018,06,16,14,04,22.80
2018,06,16,14,05,22.80
2018,06,16,14,06,22.70
2018,06,16,14,07,22.60
2018,06,16,14,08,22.60
2018,06,16,14,09,22.70
2018,06,16,14,10,22.70
2018,06,16,14,11,22.60
2018,06,16,14,12,22.60
2018,06,16,14,13,22.60
2018,06,16,14,14,22.60
2018,06,16,14,15,22.70
2018,06,16,14,16,22.80
2018,06,16,14,17,22.90
2018,06,16,14,18,23.00
2018,06,16,14,19,23.10
2018,06,16,14,20,23.10
2018,06,16,14,21,23.20
2018,06,16,14,22,23.20
2018,06,16,14,23,23.20
2018,06,16,14,24,23.10
2018,06,16,14,25,23.00
2018,06,16,14,26,22.90
2018,06,16,14,27,22.90
2018,06,16,14,28,22.90
2018,06,16,14,29,22.80
2018,06,16,14,30,22.80
2018,06,16,14,31,22.90
2018,06,16,14,32,22.90
2018,06,16,14,33,23.00
2018,06,16,14,34,23.10
2018,06,16,14,35,23.30
2018,06,16,14,36,23.20
2018,06,16,14,37,23.20
2018,06,16,14,38,23.20
2018,06,16,14,39,23.20
2018,06,16,14,40,23.20
2018,06,16,14,41,23.20
2018,06,16,14,42,23.10
2018,06,16,14,43,23.10
2018,06,16,14,44,23.10
2018,06,16,14,45,23.20
2018,06,16,14,46,23.30
2018,06,16,14,47,23.30
2018,06,16,14,48,23.30
2018,06,16,14,49,23.30
2018,06,16,14,50,23.20
2018,06,16,14,51,23.20
2018,06,16,14,52,23.20
2018,06,16,14,53,23.20
2018,06,16,14,54,23.20
2018,06,16,14,55,23.30
2018,06,16,14,56,23.30
2018,06,16,14,57,23.30
2018,06,16,14,58,23.30
2018,06,16,14,59,23.30
2018,06,16,15,00,23.40
2018,06,16,15,01,23.50
2018,06,16,15,02,23.60
2018,06,16,15,03,23.70
2018,06,16,15,04,23.90
2018,06,16,15,05,24.10
2018,06,16,15,06,24.30
2018,06,16,15,07,24.50
2018,06,16,15,08,24.70
2018,06,16,15,09,24.90
2018,06,16,15,10,25.00
2018,06,16,15,11,25.10
2018,06,16,15,12,25.10
2018,06,16,15,13,25.10
2018,06,16,15,14,25.20
2018,06,16,15,15,25.20
2018,06,16,15,16,25.20
2018,06,16,15,17,25.00
2018,06,16,15,18,24.90
2018,06,16,15,19,24.80
2018,06,16,15,20,24.90
2018,06,16,15,21,24.90
2018,06,16,15,22,25.00
2018,06,16,15,23,25.00
2018,06,16,15,24,25.00
2018,06,16,15,25,25.10
2018,06,16,15,26,25.20
2018,06,16,15,27,25.20
2018,06,16,15,28,25.20
2018,06,16,15,29,25.10
2018,06,16,15,30,25.00
2018,06,16,15,31,25.00
2018,06,16,15,32,25.10
2018,06,16,15,33,25.10
2018,06,16,15,34,25.20
2018,06,16,15,35,25.20
2018,06,16,15,36,25.20
2018,06,16,15,37,25.20
2018,06,16,15,38,25.10
2018,06,16,15,39,25.10
2018,06,16,15,40,25.10
2018,06,16,15,41,25.00
2018,06,16,15,42,24.90
2018,06,16,15,43,24.90
2018,06,16,15,44,24.80
2018,06,16,15,45,24.70
2018,06,16,15,46,24.50
2018,06,16,15,47,24.40
2018,06,16,15,48,24.40
2018,06,16,15,49,24.20
2018,06,16,15,50,24.10
2018,06,16,15,51,24.10
2018,06,16,15,52,24.10
2018,06,16,15,53,24.10
2018,06,16,15,54,24.10
2018,06,16,15,55,24.20
2018,06,16,15,56,24.30
2018,06,16,15,57,24.40
2018,06,16,15,58,24.40
2018,06,16,15,59,24.50
2018,06,16,16,00,24.60
2018,06,16,16,01,24.60
2018,06,16,16,02,24.60
2018,06,16,16,03,24.60
2018,06,16,16,04,24.50
2018,06,16,16,05,24.40
2018,06,16,16,06,24.20
2018,06,16,16,07,24.20
2018,06,16,16,08,24.10
2018,06,16,16,09,24.10
2018,06,16,16,10,24.10
2018,06,16,16,11,24.10
2018,06,16,16,12,24.20
2018,06,16,16,13,24.20
2018,06,16,16,14,24.30
2018,06,16,16,15,24.30
2018,06,16,16,16,24.30
2018,06,16,16,17,24.40
2018,06,16,16,18,24.30
2018,06,16,16,19,24.20
2018,06,16,16,20,24.20
2018,06,16,16,21,24.10
2018,06,16,16,22,24.10
2018,06,16,16,23,24.00
2018,06,16,16,24,23.90
2018,06,16,16,25,23.80
2018,06,16,16,26,23.80
2018,06,16,16,27,23.90
2018,06,16,16,28,23.90
2018,06,16,16,29,23.80
2018,06,16,16,30,23.80
2018,06,16,16,31,23.80
2018,06,16,16,32,23.80
2018,06,16,16,33,23.80
2018,06,16,16,34,23.90
2018,06,16,16,35,24.00
2018,06,16,16,36,24.10
2018,06,16,16,37,23.90
2018,06,16,16,38,24.00
2018,06,16,16,39,24.10
2018,06,16,16,40,24.10
2018,06,16,16,41,24.10
2018,06,16,16,42,24.20
2018,06,16,16,43,24.20
2018,06,16,16,44,24.30
2018,06,16,16,45,24.30
2018,06,16,16,46,24.40
2018,06,16,16,47,24.50
2018,06,16,16,48,24.60
2018,06,16,16,49,24.60
2018,06,16,16,50,24.60
2018,06,16,16,51,24.60
2018,06,16,16,52,24.50
2018,06,16,16,53,24.40
2018,06,16,16,54,24.30
2018,06,16,16,55,24.20
2018,06,16,16,56,24.20
2018,06,16,16,57,24.10
2018,06,16,16,58,24.10
2018,06,16,16,59,24.00
2018,06,16,17,00,24.10
2018,06,16,17,01,24.10
2018,06,16,17,02,24.20
2018,06,16,17,03,24.30
2018,06,16,17,04,24.40
2018,06,16,17,05,24.50
2018,06,16,17,06,24.50
2018,06,16,17,07,24.60
2018,06,16,17,08,24.70
2018,06,16,17,09,24.80
2018,06,16,17,10,24.90
2018,06,16,17,11,24.90
2018,06,16,17,12,24.90
2018,06,16,17,13,24.80
2018,06,16,17,14,24.80
2018,06,16,17,15,24.70
2018,06,16,17,16,24.60
2018,06,16,17,17,24.60
2018,06,16,17,18,24.50
2018,06,16,17,19,24.40